Zurück zum Katalog

COSMOS 2251 DEB

AktivVLEO
NORAD 35443·DEBRIS·🇷🇺 Russia

Gestartet Jun 16, 1993 von Plesetsk Cosmodrome

Loading…

Nächste Überflüge (nächste 24 Stunden)

TLE

VeraltetSource: Space-Track

Epoche: Sep 8, 2026, 22:30 UTC

1 35443U 93036AKM 26251.93815014  .00340581  00000-0  63116-2 0  9997
2 35443  73.9542 125.8536 0042262 182.0696 178.0347 15.46726536909743

Verfolge COSMOS 2251 DEB in Echtzeit mit AllMySat

Download on the App Store